Погода в Рощино

Россия / Приморский край     45°54′01″N   134°53′12″E
темп.,
°C
ветер,
м/с
пор.,
м/с
влажн.,
%
обл.,
%
осадки,
мм/ч
давл.,
гПа
погр.,
м
23 апреля, пт
пт2301:00+11вюв1146100 0.0 102410
04:00+9юв0054100 0.0 102510
07:00+9юв2256100 0.0 102453
10:00+16ююз2435100 0.0 1024580
13:00+18з4633100 0.0 10231157
16:00+18з4942100 0.0 10221656
19:00+16з41156100 0.0 10221519
22:00+12зюз2775100 0.0 1023315
24 апреля, сб
сб2401:00+11з3882100 0.0 1022589
04:00+10з3894100 1.3 1021710
07:00+6з2682100 2.1 1022348
10:00+6зюз356799 2.3 10221048
13:00+10з4628100 0.0 10201802
16:00+11сз5723100 0.0 10182210
19:00+10сз47230 0.0 1018931
22:00+5сз311370 0.0 1019339
25 апреля, вс
вс2501:00+3з22442 0.0 101834
04:00+1ююз245667 0.0 101777
07:00+4зсз5124289 0.0 10151363
10:00+6сз71135100 0.0 10152776
13:00+7ссз61032100 0.1 10162836
16:00+8ссз6102723 0.1 10173018
19:00+7с48235 0.0 10192258
22:00+1вюв11360 0.0 102110
26 апреля, пн
пн2601:000ююв11425 0.0 102210
04:00−2ююв21485 0.0 102212
07:000ююв12440 0.0 102261
10:00+8зюз35265 0.0 1021865
13:00+13з46175 0.0 10181932
16:00+15з35175 0.0 10152043
19:00+13зюз222921 0.0 101529
22:00+7ююв21455 0.0 101610
27 апреля, вт
вт2701:00+6ююв2251100 0.0 101614
04:00+4юв2256100 0.0 101536
07:00+5юв2357100 0.0 1015104
10:00+12ююв353960 0.0 1013573
13:00+19юз363395 0.0 10101825
16:00+19юз51038100 0.0 10082347
19:00+17юз51246100 0.0 10071846
22:00+13ююз3959100 0.0 10091264